| time (UTC) | temp F | wind direction | speed knots | gust knots | rain 1hr in | rain 24hr in | rain mn in | humidity % | barometer mb |
| 20260510061529 | 46 | 112 | 0.0 | 0.0 | 0.00 | 0.44 | 0.00 | 95 | 1015.4 |
| 20260510060037 | 46 | 112 | 0.0 | 0.0 | 0.00 | 0.44 | 0.00 | 95 | 1015.7 |
| 20260510054527 | 46 | 112 | 0.0 | 0.0 | 0.00 | 0.44 | 0.00 | 95 | 1016.1 |
| 20260510053026 | 46 | 112 | 0.0 | 0.0 | 0.00 | 0.44 | 0.00 | 95 | 1016.1 |
| 20260510051526 | 45 | 112 | 0.0 | 0.0 | 0.00 | 0.44 | 0.00 | 95 | 1016.1 |
| 20260510050024 | 45 | 112 | 0.0 | 0.0 | 0.00 | 0.44 | 0.00 | 95 | 1016.3 |
| 20260510044524 | 46 | 112 | 0.0 | 0.0 | 0.00 | 0.44 | 0.00 | 94 | 1016.3 |
| 20260510043022 | 46 | 112 | 0.0 | 0.0 | 0.00 | 0.44 | 0.00 | 95 | 1015.9 |
| 20260510041525 | 46 | 112 | 0.0 | 0.0 | 0.00 | 0.44 | 0.00 | 95 | 1016.2 |
| 20260510040017 | 46 | 112 | 0.0 | 0.0 | 0.00 | 0.44 | 0.44 | 95 | 1016.4 |
| 20260510034517 | 46 | 112 | 0.0 | 0.0 | 0.00 | 0.44 | 0.44 | 95 | 1016.4 |
| 20260510033015 | 46 | 112 | 0.0 | 0.0 | 0.00 | 0.44 | 0.44 | 95 | 1016.6 |
| 20260510031515 | 46 | 112 | 0.0 | 0.0 | 0.00 | 0.44 | 0.44 | 95 | 1017.1 |
| 20260510030014 | 46 | 112 | 0.0 | 0.0 | 0.00 | 0.44 | 0.44 | 95 | 1017.2 |
| 20260510024518 | 46 | 112 | 0.0 | 0.0 | 0.00 | 0.44 | 0.44 | 95 | 1017.2 |
| 20260510023013 | 46 | 112 | 0.0 | 0.0 | 0.00 | 0.44 | 0.44 | 94 | 1017.4 |
| 20260510021514 | 46 | 115 | 0.0 | 0.0 | 0.00 | 0.44 | 0.44 | 94 | 1017.3 |
| 20260510020012 | 45 | 115 | 0.0 | 0.0 | 0.00 | 0.44 | 0.44 | 94 | 1017.3 |
| 20260510014513 | 45 | 115 | 0.0 | 0.0 | 0.00 | 0.44 | 0.44 | 94 | 1017.3 |
| 20260510013011 | 45 | 115 | 0.0 | 0.0 | 0.00 | 0.44 | 0.44 | 94 | 1017.2 |
| 20260510011513 | 45 | 115 | 0.0 | 0.0 | 0.00 | 0.44 | 0.44 | 94 | 1017.3 |
| 20260510010010 | 45 | 115 | 0.0 | 0.0 | 0.01 | 0.44 | 0.44 | 94 | 1017.5 |
| 20260510004510 | 45 | 115 | 0.0 | 0.0 | 0.02 | 0.44 | 0.44 | 94 | 1017.3 |
| 20260510003010 | 45 | 115 | 0.0 | 0.0 | 0.03 | 0.44 | 0.44 | 94 | 1017.2 |
| 20260510001509 | 45 | 116 | 0.0 | 0.0 | 0.04 | 0.44 | 0.44 | 94 | 1017.1 |
| 20260510000009 | 45 | 117 | 0.0 | 0.0 | 0.04 | 0.43 | 0.43 | 94 | 1017.0 |
| 20260509234509 | 45 | 117 | 0.0 | 0.0 | 0.04 | 0.42 | 0.42 | 94 | 1017.0 |
| 20260509233007 | 45 | 117 | 0.0 | 0.0 | 0.03 | 0.41 | 0.41 | 93 | 1016.7 |
| 20260509231507 | 45 | 104 | 0.0 | 0.0 | 0.03 | 0.40 | 0.40 | 93 | 1016.6 |
| 20260509230007 | 45 | 131 | 0.0 | 0.0 | 0.03 | 0.39 | 0.39 | 93 | 1016.9 |
| 20260509224507 | 45 | 339 | 0.0 | 0.0 | 0.04 | 0.38 | 0.38 | 93 | 1016.9 |
| 20260509223006 | 45 | 103 | 0.0 | 0.0 | 0.06 | 0.37 | 0.37 | 93 | 1017.1 |
| 20260509221505 | 45 | 2 | 0.0 | 0.0 | 0.08 | 0.37 | 0.37 | 93 | 1017.2 |
| 20260509220011 | 45 | 98 | 0.0 | 0.0 | 0.08 | 0.36 | 0.36 | 93 | 1017.1 |
| 20260509214504 | 45 | 259 | 0.0 | 0.0 | 0.07 | 0.34 | 0.34 | 92 | 1017.2 |
| 20260509213003 | 45 | 349 | 0.0 | 0.0 | 0.05 | 0.31 | 0.31 | 92 | 1017.4 |
| 20260509211503 | 46 | 312 | 0.0 | 0.0 | 0.03 | 0.28 | 0.28 | 91 | 1017.4 |
| 20260509210003 | 46 | 187 | 0.0 | 1.7 | 0.02 | 0.28 | 0.28 | 91 | 1017.3 |
| 20260509204504 | 46 | 70 | 0.0 | 0.0 | 0.01 | 0.27 | 0.27 | 91 | 1017.5 |
| 20260509203001 | 46 | 42 | 0.0 | 0.0 | 0.00 | 0.26 | 0.26 | 91 | 1017.9 |
| 20260509201501 | 47 | 140 | 0.0 | 0.0 | 0.00 | 0.26 | 0.26 | 91 | 1017.8 |
| 20260509200001 | 47 | 94 | 0.0 | 0.0 | 0.00 | 0.26 | 0.26 | 91 | 1017.4 |
| 20260509194559 | 47 | 42 | 0.0 | 0.9 | 0.01 | 0.26 | 0.26 | 91 | 1016.7 |
| 20260509193059 | 47 | 352 | 0.0 | 0.0 | 0.02 | 0.26 | 0.26 | 92 | 1017.4 |
| 20260509191559 | 47 | 35 | 0.0 | 0.0 | 0.04 | 0.26 | 0.26 | 92 | 1017.6 |
| 20260509190059 | 46 | 1 | 0.0 | 0.0 | 0.05 | 0.26 | 0.26 | 92 | 1017.9 |
| 20260509184648 | 46 | 112 | 0.0 | 0.0 | 0.06 | 0.25 | 0.25 | 92 | 1018.2 |
| 20260509183104 | 46 | 35 | 0.0 | 0.0 | 0.06 | 0.24 | 0.24 | 91 | 1018.3 |
| 20260509181557 | 46 | 108 | 0.0 | 0.0 | 0.07 | 0.22 | 0.22 | 91 | 1018.4 |
| 20260509180105 | 46 | 129 | 0.0 | 0.0 | 0.08 | 0.21 | 0.21 | 91 | 1018.2 |
| 20260509174554 | 46 | 35 | 0.0 | 0.0 | 0.08 | 0.19 | 0.19 | 90 | 1018.9 |
| 20260509173054 | 46 | 79 | 0.0 | 0.0 | 0.09 | 0.18 | 0.18 | 90 | 1018.8 |
| 20260509171552 | 46 | 319 | 0.0 | 0.0 | 0.08 | 0.15 | 0.15 | 90 | 1018.6 |
| 20260509170059 | 46 | 127 | 0.0 | 0.0 | 0.08 | 0.13 | 0.13 | 89 | 1018.8 |
| 20260509164553 | 46 | 123 | 0.0 | 0.0 | 0.07 | 0.11 | 0.11 | 89 | 1018.6 |
| 20260509163106 | 46 | 127 | 0.0 | 0.0 | 0.06 | 0.09 | 0.09 | 87 | 1018.6 |
| 20260509161550 | 47 | 127 | 0.0 | 0.0 | 0.05 | 0.07 | 0.07 | 86 | 1019.1 |
| 20260509160050 | 47 | 127 | 0.0 | 0.9 | 0.04 | 0.05 | 0.05 | 86 | 1019.2 |
| 20260509154550 | 48 | 125 | 0.0 | 0.0 | 0.04 | 0.04 | 0.04 | 84 | 1019.3 |
| 20260509153048 | 49 | 106 | 0.0 | 0.0 | 0.03 | 0.03 | 0.03 | 84 | 1019.4 |
| 20260509151553 | 49 | 108 | 0.0 | 0.0 | 0.02 | 0.02 | 0.02 | 81 | 1019.5 |
| 20260509150050 | 49 | 84 | 0.0 | 0.0 | 0.01 | 0.01 | 0.01 | 75 | 1019.5 |
| 20260509144546 | 50 | 33 | 0.0 | 0.0 | 0.00 | 0.00 | 0.00 | 67 | 1019.3 |
| 20260509143051 | 52 | 113 | 0.0 | 0.0 | 0.00 | 0.00 | 0.00 | 63 | 1019.1 |
| 20260509141558 | 53 | 131 | 0.0 | 0.9 | 0.00 | 0.00 | 0.00 | 58 | 1019.0 |
| 20260509140057 | 53 | 150 | 0.0 | 6.1 | 0.00 | 0.00 | 0.00 | 57 | 1018.9 |
| 20260509134543 | 53 | 100 | 0.0 | 0.0 | 0.00 | 0.00 | 0.00 | 57 | 1019.0 |
| 20260509133041 | 52 | 115 | 0.0 | 0.0 | 0.00 | 0.00 | 0.00 | 63 | 1019.0 |
| 20260509131540 | 51 | 115 | 0.0 | 0.0 | 0.00 | 0.00 | 0.00 | 66 | 1018.9 |
| 20260509130042 | 51 | 103 | 0.0 | 0.0 | 0.00 | 0.00 | 0.00 | 66 | 1019.0 |
| 20260509124539 | 51 | 89 | 0.0 | 0.0 | 0.00 | 0.00 | 0.00 | 63 | 1019.2 |
| 20260509123045 | 50 | 6 | 0.0 | 0.0 | 0.00 | 0.00 | 0.00 | 63 | 1019.1 |
| 20260509121531 | 49 | 86 | 0.0 | 0.0 | 0.00 | 0.00 | 0.00 | 64 | 1019.1 |
| 20260509120027 | 48 | 328 | 0.0 | 0.0 | 0.00 | 0.00 | 0.00 | 71 | 1019.1 |
| 20260509114525 | 46 | 328 | 0.0 | 0.0 | 0.00 | 0.00 | 0.00 | 73 | 1019.2 |
| 20260509113017 | 44 | 328 | 0.0 | 0.0 | 0.00 | 0.00 | 0.00 | 77 | 1019.3 |
| 20260509111519 | 41 | 239 | 0.0 | 0.0 | 0.00 | 0.00 | 0.00 | 82 | 1019.4 |
| 20260509110009 | 40 | 238 | 0.0 | 0.0 | 0.00 | 0.00 | 0.00 | 87 | 1019.4 |
| 20260509104523 | 38 | 238 | 0.0 | 0.0 | 0.00 | 0.00 | 0.00 | 91 | 1019.5 |
| 20260509103005 | 36 | 238 | 0.0 | 0.0 | 0.00 | 0.00 | 0.00 | 92 | 1019.1 |
| 20260509101504 | 34 | 238 | 0.0 | 0.0 | 0.00 | 0.00 | 0.00 | 92 | 1018.9 |
| 20260509100003 | 33 | 238 | 0.0 | 0.0 | 0.00 | 0.00 | 0.00 | 91 | 1018.7 |
| 20260509094605 | 33 | 238 | 0.0 | 0.0 | 0.00 | 0.00 | 0.00 | 91 | 1018.4 |
| 20260509093105 | 32 | 238 | 0.0 | 0.0 | 0.00 | 0.00 | 0.00 | 90 | 1018.5 |
| 20260509091608 | 33 | 238 | 0.0 | 0.0 | 0.00 | 0.00 | 0.00 | 90 | 1018.4 |
| 20260509090055 | 33 | 238 | 0.0 | 0.0 | 0.00 | 0.00 | 0.00 | 89 | 1018.0 |
| 20260509084553 | 33 | 238 | 0.0 | 0.0 | 0.00 | 0.00 | 0.00 | 88 | 1017.9 |
| 20260509083051 | 34 | 238 | 0.0 | 0.0 | 0.00 | 0.00 | 0.00 | 88 | 1017.9 |
| 20260509081558 | 34 | 238 | 0.0 | 0.0 | 0.00 | 0.00 | 0.00 | 87 | 1018.1 |
| 20260509080052 | 34 | 238 | 0.0 | 0.0 | 0.00 | 0.00 | 0.00 | 87 | 1017.9 |
| 20260509074548 | 35 | 238 | 0.0 | 0.0 | 0.00 | 0.00 | 0.00 | 87 | 1017.9 |
| 20260509073049 | 35 | 238 | 0.0 | 0.0 | 0.00 | 0.00 | 0.00 | 87 | 1017.8 |
| 20260509071548 | 35 | 238 | 0.0 | 0.0 | 0.00 | 0.00 | 0.00 | 88 | 1018.0 |
| 20260509070045 | 35 | 238 | 0.0 | 0.0 | 0.00 | 0.00 | 0.00 | 86 | 1017.9 |
| 20260509064543 | 35 | 238 | 0.0 | 0.0 | 0.00 | 0.00 | 0.00 | 85 | 1017.9 |
| 20260509063041 | 36 | 238 | 0.0 | 0.0 | 0.00 | 0.00 | 0.00 | 85 | 1017.9 |